TimePDT,TemperatureF,Dew PointF,Humidity,Sea Level PressureIn,VisibilityMPH,Wind Direction,Wind SpeedMPH,Gust SpeedMPH,PrecipitationIn,Events,Conditions,WindDirDegrees,DateUTC
12:53 AM,60.1,52.0,75,29.84,10.0,WNW,9.2,-,N/A,,Clear,290,2012-06-18 07:53:00
1:53 AM,57.9,52.0,81,29.85,10.0,WNW,8.1,-,N/A,,Clear,300,2012-06-18 08:53:00
2:53 AM,57.0,52.0,83,29.85,10.0,NW,6.9,-,N/A,,Clear,320,2012-06-18 09:53:00
3:53 AM,55.9,52.0,87,29.86,10.0,NW,8.1,-,N/A,,Clear,310,2012-06-18 10:53:00
4:53 AM,55.9,52.0,87,29.86,10.0,NW,6.9,-,N/A,,Clear,310,2012-06-18 11:53:00
5:53 AM,55.9,52.0,87,29.88,10.0,NW,10.4,-,N/A,,Clear,320,2012-06-18 12:53:00
6:53 AM,57.0,52.0,83,29.87,10.0,NW,6.9,-,N/A,,Clear,310,2012-06-18 13:53:00
7:53 AM,62.1,53.1,72,29.87,10.0,NW,9.2,-,N/A,,Clear,310,2012-06-18 14:53:00
8:53 AM,63.0,53.1,70,29.88,10.0,NW,13.8,-,N/A,,Clear,310,2012-06-18 15:53:00
9:53 AM,66.0,52.0,60,29.88,10.0,NW,16.1,-,N/A,,Clear,310,2012-06-18 16:53:00
10:53 AM,71.1,50.0,47,29.86,10.0,WNW,15.0,-,N/A,,Clear,300,2012-06-18 17:53:00
11:01 AM,71.6,51.8,50,29.87,10.0,WNW,12.7,-,N/A,,Clear,300,2012-06-18 18:01:00
11:53 AM,75.0,50.0,41,29.85,10.0,WNW,13.8,-,N/A,,Clear,300,2012-06-18 18:53:00
12:53 PM,77.0,50.0,39,29.84,10.0,WNW,13.8,-,N/A,,Clear,290,2012-06-18 19:53:00
1:53 PM,80.1,51.1,36,29.83,10.0,WNW,15.0,-,N/A,,Clear,290,2012-06-18 20:53:00
2:53 PM,87.1,48.0,26,29.81,10.0,SW,17.3,23.0,N/A,,Clear,220,2012-06-18 21:53:00
3:53 PM,80.1,50.0,35,29.81,10.0,WNW,17.3,24.2,N/A,,Clear,300,2012-06-18 22:53:00
4:53 PM,78.1,48.0,35,29.80,10.0,West,19.6,-,N/A,,Clear,280,2012-06-18 23:53:00
5:53 PM,73.0,45.0,37,29.81,10.0,WNW,17.3,-,N/A,,Clear,300,2012-06-19 00:53:00
6:53 PM,69.1,46.9,45,29.81,10.0,WNW,17.3,-,N/A,,Clear,290,2012-06-19 01:53:00
7:53 PM,64.9,46.0,50,29.82,10.0,WNW,12.7,-,N/A,,Clear,290,2012-06-19 02:53:00
8:53 PM,61.0,44.1,54,29.82,10.0,NW,10.4,-,N/A,,Clear,310,2012-06-19 03:53:00
9:53 PM,59.0,46.0,62,29.82,10.0,WNW,10.4,-,N/A,,Clear,300,2012-06-19 04:53:00
10:53 PM,57.9,46.0,65,29.83,10.0,NW,8.1,-,N/A,,Clear,310,2012-06-19 05:53:00
11:53 PM,57.9,45.0,62,29.82,10.0,NW,11.5,-,N/A,,Clear,320,2012-06-19 06:53:00